Wind_Speed
61 61 59 58 59 58 55 52 46 42 38 37 39 40 42 45 43 38 37 38 41 46 50 55 56 58 58 59 60 57 56 53 52 51 48 46 45 44
58 58 57 55 54 52 48 42 38 34 33 34 33 34 34 31 28 27 28 28 31 33 34 40 44 49 53 54 54 55 55 54 53 50 48 48 43 39
47 47 46 45 43 40 38 33 30 30 29 27 26 27 26 26 25 24 24 24 24 21 26 28 30 35 40 41 42 48 50 52 51 48 46 41 38 35
34 33 30 29 29 25 24 25 26 25 24 25 27 23 21 22 24 22 21 19 16 15 19 23 24 31 34 35 36 37 40 43 39 36 33 32 33 32
28 26 25 25 24 24 21 20 21 23 24 23 23 22 23 22 22 22 18 18 18 24 22 23 28 28 31 36 34 37 39 36 30 28 28 29 31 31
27 27 27 25 22 18 18 20 22 20 14 16 21 21 21 21 23 23 20 20 22 26 28 20 21 26 24 25 22 21 21 20 25 26 27 28 27 26
22 18 16 15 14 12 14 15 15 14 12 12 15 17 19 20 19 19 18 21 22 26 23 14 17 25 27 22 24 22 22 22 23 22 22 21 20 19
14 12 10 11 10 11 10 11 9 9 9 8 11 14 14 17 17 17 20 20 22 23 23 13 16 22 25 20 21 21 21 21 20 20 19 16 14 15
11 11 10 10 10 12 12 6 6 11 13 14 13 14 12 16 16 15 15 20 23 20 16 17 22 24 29 25 21 20 18 16 15 16 18 16 14 14
12 11 11 9 8 10 5 5 6 7 11 15 15 13 12 13 16 16 16 18 19 19 21 21 25 24 22 21 20 17 14 14 11 11 13 16 16 12
12 11 10 7 5 6 3 5 7 5 7 14 17 14 15 16 17 19 18 22 21 21 20 21 21 21 21 23 19 16 15 15 14 14 17 18 12 9
13 12 11 10 6 5 3 2 7 6 7 8 16 19 17 17 23 24 21 22 21 21 19 20 19 18 15 16 15 16 16 14 13 15 13 10 10 8
15 13 8 6 7 8 8 2 2 5 5 6 10 14 18 22 24 22 19 17 18 20 19 18 18 18 17 17 16 16 15 12 10 10 13 12 9 6
12 12 9 3 5 7 6 7 6 3 5 9 13 15 18 19 18 17 16 16 17 19 19 18 18 19 20 19 16 13 11 11 16 18 15 12 9 8
11 9 7 5 2 5 8 9 13 10 9 13 14 14 17 17 18 17 16 15 13 15 17 18 16 14 16 16 14 13 16 20 20 17 15 13 12 13
13 10 7 5 3 3 8 13 14 10 12 16 19 20 17 16 16 15 13 12 12 14 16 14 14 15 14 14 18 22 24 23 19 17 17 15 15 18
14 12 11 8 5 4 5 7 9 8 9 13 22 24 21 20 19 16 14 15 16 17 16 13 12 10 10 18 26 28 26 23 20 19 18 16 17 19
11 12 11 12 10 8 8 8 8 8 7 10 16 21 22 22 21 18 17 19 20 20 19 17 16 16 19 25 32 31 26 25 23 20 16 15 16 16
7 8 11 13 15 13 11 10 9 9 10 11 14 17 21 21 20 19 19 20 20 21 23 24 26 28 27 26 26 27 26 25 25 20 15 12 13 12
5 3 5 12 16 16 15 14 13 12 12 13 15 18 21 22 22 21 20 20 22 24 25 27 31 32 31 29 25 22 21 24 24 19 14 11 11 12
3 5 3 6 15 18 18 18 17 16 15 15 17 18 19 20 20 19 19 20 23 24 27 28 30 32 31 29 27 24 21 22 21 17 15 13 13 13
3 4 6 1 11 19 21 22 22 21 20 19 19 19 18 18 19 20 20 21 23 25 27 28 29 31 31 31 30 28 25 22 20 17 15 15 14 12
11 9 8 5 4 14 21 24 24 24 24 23 22 22 21 19 19 20 21 23 25 27 29 29 29 29 29 29 30 30 28 24 20 17 14 14 13 10
Wind_Direction
284 283 282 281 282 284 283 280 272 265 258 255 258 257 257 260 263 264 265 265 265 262 256 249 247 243 239 239 239 240 242 245 247 252 257 261 263 264
283 282 280 279 279 279 281 281 277 270 262 264 265 265 260 258 260 259 260 266 269 268 254 244 239 234 233 234 236 236 237 240 244 249 255 259 262 261
288 286 284 283 281 282 282 282 279 269 260 256 254 251 253 253 253 253 264 271 277 262 236 224 220 223 226 229 231 236 237 239 244 250 255 257 257 258
290 291 291 288 285 282 281 273 268 263 262 258 246 239 242 245 252 256 266 263 253 217 213 211 198 200 215 215 210 226 235 242 244 241 238 242 248 250
292 292 290 288 296 294 278 263 266 277 275 252 243 242 249 247 250 259 250 241 213 186 180 194 200 201 203 201 207 206 219 222 217 225 230 238 245 249
301 298 293 291 291 290 276 258 265 281 286 234 227 231 246 248 249 244 231 215 208 191 189 196 185 181 170 168 188 219 232 211 209 221 231 239 245 249
301 301 299 298 291 284 271 261 269 268 248 226 231 238 236 233 232 219 203 211 210 197 199 184 176 167 164 172 195 209 219 221 223 228 233 238 243 248
296 298 306 315 314 321 311 263 257 267 224 198 204 210 216 218 215 205 215 213 211 203 203 178 161 160 155 164 182 200 211 218 224 229 229 231 244 255
301 302 302 320 322 322 334 317 274 260 233 221 208 199 207 209 199 196 200 194 212 206 190 180 167 175 176 180 193 204 210 218 223 224 227 238 253 268
320 305 299 310 330 340 327 11 336 267 221 202 195 194 184 179 175 169 170 182 195 189 185 183 178 174 176 188 200 204 210 212 223 237 237 250 258 256
327 307 299 312 329 351 47 28 339 312 201 194 190 187 193 195 179 168 176 186 188 181 187 184 181 186 194 197 198 203 210 216 226 245 256 254 233 208
336 314 288 284 283 314 332 33 25 82 123 176 199 201 202 193 179 172 180 183 184 186 186 192 201 206 207 206 209 219 221 224 242 261 253 216 183 190
352 342 327 280 260 272 286 239 87 62 98 132 161 185 201 195 181 171 167 171 183 193 198 204 205 200 202 208 219 225 221 242 240 184 163 166 170 170
338 347 353 354 257 238 234 209 193 177 130 123 131 142 156 165 168 170 173 175 185 193 198 198 197 206 211 210 205 205 214 200 165 155 157 155 151 148
310 328 342 360 17 206 195 199 193 193 180 165 151 148 146 143 147 152 156 163 172 186 193 196 197 197 195 189 181 181 169 157 153 153 149 145 147 146
288 288 299 317 331 129 153 165 169 179 186 192 190 181 182 182 176 179 187 195 196 187 187 188 184 178 177 176 169 160 155 151 150 147 146 145 145 142
282 267 261 260 251 234 210 189 192 209 212 204 195 192 195 199 207 215 213 204 189 173 172 176 170 157 160 165 159 155 155 151 146 144 143 143 142 140
288 265 246 240 231 217 211 207 197 190 185 172 177 190 198 203 209 212 201 187 179 172 165 157 150 156 162 165 160 155 154 148 142 141 142 144 143 145
309 270 240 227 225 215 207 199 186 174 166 168 169 171 174 175 174 173 172 170 167 163 163 164 159 154 157 161 162 158 153 148 143 142 140 145 153 161
355 333 241 217 215 212 204 196 189 181 168 161 157 156 157 158 157 157 157 159 164 172 173 169 163 159 160 161 161 161 156 150 146 143 138 140 152 157
30 27 8 203 201 203 200 194 189 186 177 167 158 155 155 155 157 161 163 166 167 169 170 168 165 162 161 161 157 157 157 150 145 141 137 136 141 143
40 26 22 54 188 193 193 192 188 186 182 176 168 163 159 155 155 157 159 163 166 167 167 166 166 167 168 165 160 157 158 155 151 148 144 141 138 133
46 38 35 43 159 187 189 188 187 185 183 180 176 172 168 165 162 160 159 162 165 167 166 166 169 174 175 172 166 161 161 162 159 156 154 151 146 143
Height
5594 5590 5587 5585 5583 5579 5574 5571 5572 5577 5580 5582 5584 5584 5587 5591 5593 5596 5598 5599 5599 5599 5602 5607 5613 5621 5630 5639 5649 5657 5664 5672 5677 5680 5684 5686 5689 5690
5577 5573 5572 5571 5569 5566 5563 5561 5559 5561 5566 5572 5574 5574 5576 5579 5582 5586 5588 5588 5588 5588 5590 5593 5598 5606 5617 5627 5635 5644 5652 5660 5665 5670 5674 5676 5680 5681
5563 5559 5557 5556 5554 5553 5550 5549 5549 5550 5554 5561 5564 5565 5567 5570 5574 5577 5578 5579 5579 5578 5580 5586 5591 5599 5609 5619 5628 5634 5642 5649 5656 5661 5664 5667 5669 5672
5552 5549 5547 5545 5544 5542 5540 5540 5541 5543 5545 5550 5553 5556 5560 5563 5566 5570 5570 5571 5572 5573 5576 5581 5587 5595 5602 5611 5621 5627 5633 5640 5647 5652 5654 5657 5660 5662
5545 5543 5540 5539 5537 5535 5534 5535 5536 5537 5538 5540 5544 5549 5553 5556 5560 5562 5564 5566 5568 5569 5576 5582 5587 5592 5599 5607 5613 5621 5627 5632 5639 5644 5647 5649 5652 5654
5539 5536 5533 5532 5530 5528 5527 5528 5530 5531 5530 5533 5537 5542 5546 5549 5552 5556 5559 5563 5566 5569 5572 5578 5584 5593 5599 5603 5607 5613 5620 5626 5632 5637 5640 5643 5645 5647
5532 5530 5528 5526 5525 5524 5523 5524 5524 5524 5526 5528 5532 5536 5540 5544 5547 5550 5555 5560 5563 5569 5573 5578 5582 5587 5593 5597 5604 5612 5618 5623 5627 5631 5634 5637 5639 5641
5530 5528 5526 5524 5522 5520 5519 5519 5520 5522 5524 5526 5529 5533 5537 5540 5543 5546 5552 5557 5562 5567 5572 5577 5582 5588 5593 5598 5605 5611 5616 5619 5623 5627 5630 5632 5634 5635
5528 5526 5524 5523 5522 5519 5518 5516 5517 5519 5522 5525 5528 5532 5535 5537 5541 5544 5549 5556 5561 5565 5572 5577 5582 5587 5594 5599 5604 5608 5612 5617 5620 5623 5626 5628 5630 5630
5526 5524 5522 5522 5520 5517 5517 5517 5517 5516 5518 5522 5527 5530 5533 5536 5539 5543 5549 5555 5562 5566 5572 5576 5581 5587 5593 5597 5602 5606 5611 5615 5617 5619 5622 5624 5625 5626
5524 5522 5520 5520 5519 5518 5518 5518 5517 5516 5517 5520 5524 5529 5532 5537 5541 5545 5550 5556 5562 5567 5572 5577 5581 5585 5590 5595 5599 5604 5607 5610 5613 5616 5618 5620 5621 5623
5521 5519 5518 5518 5519 5520 5520 5520 5518 5517 5518 5520 5523 5527 5531 5536 5541 5546 5550 5556 5561 5567 5571 5577 5581 5586 5589 5593 5597 5601 5605 5608 5611 5612 5613 5616 5620 5623
5520 5517 5516 5517 5518 5520 5519 5520 5521 5520 5521 5522 5524 5527 5530 5535 5541 5547 5553 5558 5563 5568 5572 5577 5581 5585 5589 5592 5595 5599 5603 5606 5608 5609 5612 5616 5619 5621
5519 5517 5516 5516 5516 5517 5518 5520 5522 5523 5524 5525 5528 5531 5534 5539 5544 5549 5554 5559 5564 5568 5573 5577 5580 5584 5587 5590 5594 5597 5600 5603 5606 5610 5613 5616 5619 5620
5517 5516 5515 5515 5516 5516 5517 5519 5522 5524 5526 5528 5531 5535 5538 5542 5546 5551 5556 5559 5563 5567 5571 5575 5578 5581 5585 5588 5591 5595 5599 5602 5607 5611 5614 5617 5619 5621
5514 5514 5515 5515 5515 5516 5517 5519 5522 5524 5526 5528 5531 5535 5539 5543 5547 5551 5556 5559 5562 5565 5569 5573 5577 5580 5583 5586 5590 5595 5599 5603 5608 5611 5614 5617 5620 5622
5508 5510 5511 5512 5514 5515 5517 5519 5521 5523 5524 5525 5528 5532 5537 5541 5545 5549 5553 5557 5561 5564 5568 5573 5576 5579 5582 5586 5591 5596 5600 5604 5609 5612 5616 5619 5622 5624
5503 5504 5506 5508 5510 5513 5515 5517 5519 5521 5523 5524 5527 5530 5534 5538 5542 5546 5551 5555 5560 5564 5567 5571 5575 5580 5584 5588 5591 5596 5601 5605 5610 5615 5619 5621 5623 5626
5499 5499 5501 5503 5505 5509 5512 5515 5518 5520 5523 5525 5527 5530 5534 5538 5541 5545 5549 5553 5558 5562 5566 5571 5575 5580 5586 5592 5596 5599 5603 5608 5612 5617 5620 5623 5625 5626
5496 5496 5496 5498 5501 5504 5509 5513 5516 5520 5523 5526 5529 5532 5535 5538 5542 5546 5550 5555 5559 5564 5568 5571 5575 5580 5585 5592 5598 5603 5607 5610 5614 5618 5620 5623 5625 5626
5494 5494 5493 5493 5496 5500 5504 5509 5513 5518 5522 5526 5530 5533 5537 5540 5543 5548 5552 5557 5561 5565 5569 5573 5578 5583 5589 5594 5599 5605 5610 5613 5616 5618 5621 5623 5625 5626
5492 5492 5491 5491 5492 5495 5500 5505 5510 5515 5520 5524 5529 5534 5538 5541 5545 5549 5553 5558 5562 5566 5571 5576 5582 5587 5591 5595 5599 5604 5610 5613 5616 5619 5621 5624 5626 5627
5493 5492 5491 5490 5490 5492 5496 5501 5506 5512 5518 5523 5528 5533 5538 5542 5546 5550 5554 5558 5563 5568 5573 5578 5584 5589 5593 5597 5600 5604 5609 5614 5617 5620 5622 5624 5626 5627